• En España
  • Lista de países
  • Para 7 días
  • Temperatura del agua
  • Mapa Satelital
  • El tiempo en el mapa
  • Informadores
  • user-avatar
    Iniciar sesión

    Tiempo cada hora Tehran

    Hoy, 13 Noviembre, Martes

    Tiempo Temperatura Precipitaciones Viento Presión Humedad
    00:00 +10°C° 0.2 mm 0 mps 667 mmHg 85%
    01:00 +10°C° 0.2 mm 0 mps 667 mmHg 85%
    02:00 +10°C° 0.2 mm 0 mps 667 mmHg 86%
    03:00 +10°C° 0.2 mm 0 mps 667 mmHg 86%
    04:00 +10°C° 0.2 mm 0 mps 667 mmHg 87%
    05:00 +10°C° 0.2 mm 0 mps 667 mmHg 87%
    06:00 +9°C° 0.2 mm 0 mps 667 mmHg 87%
    07:00 +10°C° 0.2 mm 0 mps 667 mmHg 85%
    08:00 +11°C° 0.2 mm 1 mps 667 mmHg 82%
    09:00 +11°C° 0.2 mm 1 mps 667 mmHg 80%
    10:00 +12°C° 0.2 mm 1 mps 667 mmHg 78%
    11:00 +12°C° 0.2 mm 1 mps 667 mmHg 77%
    12:00 +12°C° 0.2 mm 1 mps 667 mmHg 75%
    13:00 +12°C° 0.3 mm 1 mps 667 mmHg 73%
    14:00 +12°C° 0.3 mm 1 mps 667 mmHg 72%
    15:00 +13°C° 0.3 mm 1 mps 667 mmHg 71%
    16:00 +12°C° 0.2 mm 1 mps 667 mmHg 72%
    17:00 +12°C° 0.2 mm 1 mps 667 mmHg 73%
    18:00 +12°C° 0.2 mm 1 mps 667 mmHg 74%
    19:00 +12°C° 0.1 mm 1 mps 667 mmHg 76%
    20:00 +11°C° 0.1 mm 1 mps 667 mmHg 77%
    21:00 +11°C° 0.1 mm 1 mps 668 mmHg 78%
    22:00 +11°C° 0 mm 1 mps 667 mmHg 78%
    23:00 +11°C° 0 mm 1 mps 667 mmHg 79%

    Mañana, 14 Noviembre, Miércoles

    Tiempo Temperatura Precipitaciones Viento Presión Humedad
    00:00 +10°C° 0 mm 1 mps 667 mmHg 79%
    01:00 +10°C° 0 mm 1 mps 667 mmHg 78%
    02:00 +10°C° 0 mm 1 mps 667 mmHg 77%
    03:00 +10°C° 0 mm 1 mps 667 mmHg 77%
    04:00 +10°C° 0 mm 1 mps 667 mmHg 76%
    05:00 +10°C° 0 mm 1 mps 667 mmHg 75%
    06:00 +10°C° 0 mm 1 mps 666 mmHg 75%
    07:00 +9°C° 0.1 mm 2 mps 667 mmHg 73%
    08:00 +10°C° 0.1 mm 2 mps 667 mmHg 72%
    09:00 +10°C° 0.1 mm 2 mps 667 mmHg 71%
    10:00 +11°C° 0 mm 3 mps 667 mmHg 68%
    11:00 +11°C° 0 mm 3 mps 666 mmHg 65%
    12:00 +12°C° 0 mm 3 mps 666 mmHg 62%
    13:00 +12°C° 0 mm 3 mps 666 mmHg 61%
    14:00 +12°C° 0 mm 3 mps 666 mmHg 59%
    15:00 +12°C° 0 mm 3 mps 666 mmHg 58%
    16:00 +12°C° 0 mm 3 mps 666 mmHg 59%
    17:00 +12°C° 0 mm 2 mps 665 mmHg 61%
    18:00 +12°C° 0 mm 2 mps 665 mmHg 62%
    19:00 +10°C° 0 mm 2 mps 665 mmHg 61%
    20:00 +10°C° 0 mm 2 mps 665 mmHg 61%
    21:00 +10°C° 0 mm 2 mps 665 mmHg 61%
    22:00 +10°C° 0 mm 2 mps 665 mmHg 60%
    23:00 +10°C° 0 mm 2 mps 665 mmHg 59%

    Pasado mañana, 15 Noviembre, Jueves

    Tiempo Temperatura Precipitaciones Viento Presión Humedad
    00:00 +10°C° 0 mm 2 mps 665 mmHg 58%
    01:00 +10°C° 0.1 mm 2 mps 665 mmHg 60%
    02:00 +10°C° 0.1 mm 2 mps 665 mmHg 61%
    03:00 +10°C° 0.1 mm 2 mps 665 mmHg 62%
    04:00 +10°C° 0.3 mm 2 mps 665 mmHg 63%
    05:00 +10°C° 0.3 mm 2 mps 665 mmHg 65%
    06:00 +10°C° 0.3 mm 2 mps 665 mmHg 66%
    07:00 +10°C° 0.2 mm 2 mps 665 mmHg 64%
    08:00 +12°C° 0.2 mm 2 mps 666 mmHg 61%
    09:00 +12°C° 0.2 mm 2 mps 666 mmHg 59%
    10:00 +13°C° 0 mm 2 mps 666 mmHg 57%
    11:00 +14°C° 0 mm 2 mps 666 mmHg 55%
    12:00 +14°C° 0 mm 2 mps 665 mmHg 53%
    13:00 +14°C° 0 mm 2 mps 665 mmHg 51%
    14:00 +15°C° 0 mm 2 mps 665 mmHg 50%
    15:00 +15°C° 0 mm 2 mps 665 mmHg 49%
    16:00 +14°C° 0 mm 2 mps 665 mmHg 49%
    17:00 +13°C° 0 mm 2 mps 665 mmHg 50%
    18:00 +12°C° 0 mm 2 mps 665 mmHg 51%
    19:00 +12°C° 0 mm 1 mps 665 mmHg 50%
    20:00 +12°C° 0 mm 1 mps 665 mmHg 50%
    21:00 +12°C° 0 mm 1 mps 666 mmHg 50%
    22:00 +12°C° 0 mm 1 mps 666 mmHg 50%
    23:00 +12°C° 0 mm 1 mps 666 mmHg 51%

    16 Noviembre, Viernes

    Tiempo Temperatura Precipitaciones Viento Presión Humedad
    00:00 +12°C° 0 mm 1 mps 666 mmHg 51%
    01:00 +12°C° 0 mm 1 mps 665 mmHg 53%
    02:00 +12°C° 0 mm 1 mps 665 mmHg 54%
    03:00 +12°C° 0 mm 1 mps 665 mmHg 56%
    04:00 +12°C° 0.1 mm 1 mps 665 mmHg 57%
    05:00 +12°C° 0.1 mm 1 mps 666 mmHg 59%
    06:00 +11°C° 0.1 mm 0 mps 666 mmHg 60%
    07:00 +12°C° 0.2 mm 1 mps 666 mmHg 62%
    08:00 +12°C° 0.2 mm 1 mps 667 mmHg 63%
    09:00 +12°C° 0.2 mm 1 mps 667 mmHg 64%
    10:00 +12°C° 0.4 mm 1 mps 667 mmHg 65%
    11:00 +13°C° 0.4 mm 1 mps 667 mmHg 66%
    12:00 +13°C° 0.4 mm 2 mps 666 mmHg 67%
    13:00 +13°C° 0.4 mm 2 mps 666 mmHg 68%
    14:00 +13°C° 0.4 mm 1 mps 666 mmHg 68%
    15:00 +13°C° 0.4 mm 1 mps 666 mmHg 69%
    16:00 +12°C° 0.2 mm 1 mps 666 mmHg 69%
    17:00 +12°C° 0.2 mm 1 mps 667 mmHg 70%
    18:00 +12°C° 0.2 mm 1 mps 667 mmHg 71%
    19:00 +12°C° 0.1 mm 1 mps 667 mmHg 72%
    20:00 +11°C° 0.1 mm 1 mps 667 mmHg 73%
    21:00 +11°C° 0.1 mm 1 mps 667 mmHg 74%
    22:00 +11°C° 0 mm 1 mps 666 mmHg 74%
    23:00 +10°C° 0 mm 1 mps 666 mmHg 74%

    17 Noviembre, Sábado

    Tiempo Temperatura Precipitaciones Viento Presión Humedad
    00:00 +10°C° 0 mm 1 mps 666 mmHg 74%
    01:00 +10°C° 0 mm 1 mps 666 mmHg 72%
    02:00 +10°C° 0 mm 1 mps 666 mmHg 70%
    03:00 +10°C° 0 mm 1 mps 666 mmHg 68%
    04:00 +10°C° 0 mm 1 mps 666 mmHg 67%
    05:00 +10°C° 0 mm 1 mps 666 mmHg 65%
    06:00 +10°C° 0 mm 1 mps 666 mmHg 64%
    07:00 +11°C° 0 mm 1 mps 666 mmHg 61%
    08:00 +12°C° 0 mm 1 mps 667 mmHg 58%
    09:00 +14°C° 0 mm 1 mps 667 mmHg 56%
    10:00 +14°C° 0 mm 1 mps 667 mmHg 55%
    11:00 +15°C° 0 mm 1 mps 667 mmHg 53%
    12:00 +16°C° 0 mm 2 mps 666 mmHg 52%
    13:00 +16°C° 0 mm 2 mps 666 mmHg 50%
    14:00 +16°C° 0 mm 2 mps 666 mmHg 47%
    15:00 +16°C° 0 mm 2 mps 665 mmHg 45%
    16:00 +15°C° 0 mm 1 mps 665 mmHg 45%
    17:00 +14°C° 0 mm 1 mps 665 mmHg 46%
    18:00 +13°C° 0 mm 1 mps 665 mmHg 47%
    19:00 +13°C° 0 mm 1 mps 665 mmHg 47%
    20:00 +13°C° 0 mm 1 mps 664 mmHg 47%
    21:00 +12°C° 0 mm 1 mps 664 mmHg 48%
    22:00 +12°C° 0 mm 1 mps 664 mmHg 48%
    23:00 +12°C° 0 mm 1 mps 664 mmHg 49%

    18 Noviembre, Domingo

    Tiempo Temperatura Precipitaciones Viento Presión Humedad
    00:00 +12°C° 0 mm 1 mps 664 mmHg 50%
    01:00 +11°C° 0 mm 1 mps 663 mmHg 50%
    02:00 +11°C° 0 mm 1 mps 663 mmHg 50%
    03:00 +11°C° 0 mm 1 mps 663 mmHg 50%
    04:00 +11°C° 0 mm 1 mps 663 mmHg 50%
    05:00 +11°C° 0 mm 1 mps 663 mmHg 50%
    06:00 +9°C° 0 mm 0 mps 663 mmHg 50%
    07:00 +12°C° 0 mm 1 mps 664 mmHg 47%
    08:00 +13°C° 0 mm 1 mps 665 mmHg 45%
    09:00 +15°C° 0 mm 1 mps 665 mmHg 42%
    10:00 +15°C° 0 mm 1 mps 665 mmHg 40%
    11:00 +16°C° 0 mm 1 mps 665 mmHg 39%
    12:00 +16°C° 0 mm 2 mps 665 mmHg 37%
    13:00 +16°C° 0 mm 2 mps 664 mmHg 36%
    14:00 +16°C° 0 mm 1 mps 664 mmHg 34%
    15:00 +16°C° 0 mm 1 mps 664 mmHg 33%
    16:00 +15°C° 0 mm 1 mps 664 mmHg 34%
    17:00 +15°C° 0 mm 1 mps 664 mmHg 35%
    18:00 +14°C° 0 mm 1 mps 664 mmHg 35%
    19:00 +13°C° 0 mm 1 mps 663 mmHg 35%
    20:00 +13°C° 0 mm 1 mps 663 mmHg 34%
    21:00 +12°C° 0 mm 1 mps 663 mmHg 33%
    22:00 +12°C° 0 mm 2 mps 663 mmHg 36%
    23:00 +12°C° 0 mm 2 mps 663 mmHg 38%
    Mostrar más